Time,TemperatureF,DewpointF,PressureIn,WindDirection,WindDirectionDegrees,WindSpeedMPH,WindSpeedGustMPH,Humidity,HourlyPrecipIn,Conditions,Clouds,dailyrainin,SolarRadiationWatts/m^2,SoftwareType,DateUTC
2013-09-03 00:02:00,77.0,53.0,-100.00,SE,145,0.0,0.0,44,0.00,,,0.00,0.000000,,2013-09-03 07:02:00,
2013-09-03 00:12:00,77.0,53.0,-100.00,SE,145,0.0,0.0,44,0.00,,,0.00,0.000000,,2013-09-03 07:12:00,
2013-09-03 00:22:00,77.0,53.0,-100.00,SE,145,0.0,0.0,44,0.00,,,0.00,0.000000,,2013-09-03 07:22:00,
2013-09-03 00:52:00,79.0,57.0,-100.00,WSW,245,3.0,8.0,47,0.00,,,0.00,0.000000,,2013-09-03 07:52:00,
2013-09-03 01:03:00,79.0,57.0,-100.00,WSW,245,3.0,8.0,47,0.00,,,0.00,0.000000,,2013-09-03 08:03:00,
2013-09-03 01:11:00,79.0,57.0,-100.00,WSW,245,3.0,8.0,47,0.00,,,0.00,0.000000,,2013-09-03 08:11:00,
2013-09-03 01:22:00,79.0,57.0,-100.00,WSW,245,3.0,8.0,47,0.00,,,0.00,0.000000,,2013-09-03 08:22:00,
2013-09-03 01:52:00,79.0,59.0,-100.00,NNW,342,0.0,9.0,51,0.00,,,0.00,0.000000,,2013-09-03 08:52:00,
2013-09-03 02:01:00,79.0,59.0,-100.00,NNW,342,0.0,9.0,51,0.00,,,0.00,0.000000,,2013-09-03 09:01:00,
2013-09-03 02:11:00,79.0,59.0,-100.00,NNW,342,0.0,9.0,51,0.00,,,0.00,0.000000,,2013-09-03 09:11:00,
2013-09-03 02:21:00,79.0,59.0,-100.00,NNW,342,0.0,9.0,51,0.00,,,0.00,0.000000,,2013-09-03 09:21:00,
2013-09-03 02:53:00,78.0,58.0,-100.00,South,177,0.0,5.0,51,0.00,,,0.00,0.000000,,2013-09-03 09:53:00,
2013-09-03 03:03:00,78.0,58.0,-100.00,South,177,0.0,5.0,51,0.00,,,0.00,0.000000,,2013-09-03 10:03:00,
2013-09-03 03:12:00,78.0,58.0,-100.00,South,177,0.0,5.0,51,0.00,,,0.00,0.000000,,2013-09-03 10:12:00,
2013-09-03 03:23:00,78.0,58.0,-100.00,South,177,0.0,5.0,51,0.00,,,0.00,0.000000,,2013-09-03 10:23:00,
2013-09-03 03:53:00,75.0,57.0,-100.00,SE,135,0.0,6.0,53,0.00,,,0.00,0.000000,,2013-09-03 10:53:00,
2013-09-03 04:02:00,75.0,57.0,-100.00,SE,135,0.0,6.0,53,0.00,,,0.00,0.000000,,2013-09-03 11:02:00,
2013-09-03 04:12:00,75.0,57.0,-100.00,SE,135,0.0,6.0,53,0.00,,,0.00,0.000000,,2013-09-03 11:12:00,
2013-09-03 04:22:00,75.0,57.0,-100.00,SE,135,0.0,6.0,53,0.00,,,0.00,0.000000,,2013-09-03 11:22:00,
2013-09-03 04:52:00,76.0,60.0,-100.00,SW,221,0.0,5.0,58,0.00,,,0.00,0.000000,,2013-09-03 11:52:00,
2013-09-03 05:02:00,76.0,60.0,-100.00,SW,221,0.0,5.0,58,0.00,,,0.00,0.000000,,2013-09-03 12:02:00,
2013-09-03 05:12:00,76.0,60.0,-100.00,SW,221,0.0,5.0,58,0.00,,,0.00,0.000000,,2013-09-03 12:12:00,
2013-09-03 05:21:00,76.0,60.0,-100.00,SW,221,0.0,5.0,58,0.00,,,0.00,0.000000,,2013-09-03 12:21:00,
2013-09-03 05:52:00,71.0,59.0,-100.00,West,273,0.0,6.0,67,0.00,,,0.00,0.000000,,2013-09-03 12:52:00,
2013-09-03 06:02:00,71.0,59.0,-100.00,West,273,0.0,6.0,67,0.00,,,0.00,0.000000,,2013-09-03 13:02:00,
2013-09-03 06:11:00,71.0,59.0,-100.00,West,273,0.0,6.0,67,0.00,,,0.00,0.000000,,2013-09-03 13:11:00,
2013-09-03 06:21:00,71.0,59.0,-100.00,West,273,0.0,6.0,67,0.00,,,0.00,0.000000,,2013-09-03 13:21:00,
2013-09-03 06:52:00,68.0,59.0,-100.00,SE,133,0.0,2.0,72,0.00,,,0.00,0.000000,,2013-09-03 13:52:00,
2013-09-03 07:01:00,68.0,59.0,-100.00,SE,133,0.0,2.0,72,0.00,,,0.00,0.000000,,2013-09-03 14:01:00,
2013-09-03 07:11:00,68.0,59.0,-100.00,SE,133,0.0,2.0,72,0.00,,,0.00,0.000000,,2013-09-03 14:11:00,
2013-09-03 07:21:00,68.0,59.0,-100.00,SE,133,0.0,2.0,72,0.00,,,0.00,0.000000,,2013-09-03 14:21:00,
2013-09-03 07:52:00,68.0,59.0,-100.00,SE,138,0.0,0.0,73,0.00,,,0.00,5.000000,,2013-09-03 14:52:00,
2013-09-03 08:02:00,68.0,59.0,-100.00,SE,138,0.0,0.0,73,0.00,,,0.00,5.000000,,2013-09-03 15:02:00,
2013-09-03 08:22:00,68.0,59.0,-100.00,SE,138,0.0,0.0,73,0.00,,,0.00,5.000000,,2013-09-03 15:22:00,
2013-09-03 08:54:00,72.0,60.0,-100.00,ESE,108,0.0,5.0,67,0.00,,,0.00,65.000000,,2013-09-03 15:54:00,
2013-09-03 09:04:00,72.0,60.0,-100.00,ESE,108,0.0,5.0,67,0.00,,,0.00,65.000000,,2013-09-03 16:04:00,
2013-09-03 09:14:00,72.0,60.0,-100.00,ESE,108,0.0,5.0,67,0.00,,,0.00,65.000000,,2013-09-03 16:14:00,
2013-09-03 09:24:00,72.0,60.0,-100.00,ESE,108,0.0,5.0,67,0.00,,,0.00,65.000000,,2013-09-03 16:24:00,
2013-09-03 09:54:00,76.0,61.0,-100.00,WNW,302,0.0,4.0,59,0.00,,,0.00,128.000000,,2013-09-03 16:54:00,
2013-09-03 10:03:00,76.0,61.0,-100.00,WNW,302,0.0,4.0,59,0.00,,,0.00,128.000000,,2013-09-03 17:03:00,
2013-09-03 10:12:00,76.0,61.0,-100.00,WNW,302,0.0,4.0,59,0.00,,,0.00,128.000000,,2013-09-03 17:12:00,
2013-09-03 10:23:00,76.0,61.0,-100.00,WNW,302,0.0,4.0,59,0.00,,,0.00,128.000000,,2013-09-03 17:23:00,
2013-09-03 10:52:00,76.0,58.0,-100.00,WNW,284,2.0,7.0,53,0.00,,,0.00,290.000000,,2013-09-03 17:52:00,
2013-09-03 11:02:00,76.0,58.0,-100.00,WNW,284,2.0,7.0,53,0.00,,,0.00,290.000000,,2013-09-03 18:02:00,
2013-09-03 11:12:00,76.0,58.0,-100.00,WNW,284,2.0,7.0,53,0.00,,,0.00,290.000000,,2013-09-03 18:12:00,
2013-09-03 11:21:00,76.0,58.0,-100.00,WNW,284,2.0,7.0,53,0.00,,,0.00,290.000000,,2013-09-03 18:21:00,
2013-09-03 11:52:00,84.0,58.0,-100.00,WNW,287,4.0,7.0,42,0.00,,,0.00,779.000000,,2013-09-03 18:52:00,
2013-09-03 12:02:00,84.0,58.0,-100.00,WNW,287,4.0,7.0,42,0.00,,,0.00,779.000000,,2013-09-03 19:02:00,
2013-09-03 12:11:00,84.0,58.0,-100.00,WNW,287,4.0,7.0,42,0.00,,,0.00,779.000000,,2013-09-03 19:11:00,
2013-09-03 12:22:00,84.0,58.0,-100.00,WNW,287,4.0,7.0,42,0.00,,,0.00,779.000000,,2013-09-03 19:22:00,
2013-09-03 12:52:00,89.0,56.0,-100.00,West,281,6.0,11.0,33,0.00,,,0.00,1049.000000,,2013-09-03 19:52:00,
2013-09-03 13:02:00,89.0,56.0,-100.00,West,281,6.0,11.0,33,0.00,,,0.00,1049.000000,,2013-09-03 20:02:00,
2013-09-03 13:11:00,89.0,56.0,-100.00,West,281,6.0,11.0,33,0.00,,,0.00,1049.000000,,2013-09-03 20:11:00,
2013-09-03 13:21:00,89.0,56.0,-100.00,West,281,6.0,11.0,33,0.00,,,0.00,1049.000000,,2013-09-03 20:21:00,
2013-09-03 13:52:00,91.0,52.0,-100.00,NE,40,8.0,15.0,27,0.00,,,0.00,1128.000000,,2013-09-03 20:52:00,
2013-09-03 14:01:00,91.0,52.0,-100.00,NE,40,8.0,15.0,27,0.00,,,0.00,1128.000000,,2013-09-03 21:01:00,
2013-09-03 14:12:00,91.0,52.0,-100.00,NE,40,8.0,15.0,27,0.00,,,0.00,1128.000000,,2013-09-03 21:12:00,
2013-09-03 14:22:00,91.0,52.0,-100.00,NE,40,8.0,15.0,27,0.00,,,0.00,1128.000000,,2013-09-03 21:22:00,
2013-09-03 14:54:00,92.0,52.0,-100.00,SW,226,7.0,18.0,26,0.00,,,0.00,1121.000000,,2013-09-03 21:54:00,
2013-09-03 15:04:00,92.0,52.0,-100.00,SW,226,7.0,18.0,26,0.00,,,0.00,1121.000000,,2013-09-03 22:04:00,
2013-09-03 15:13:00,92.0,52.0,-100.00,SW,226,7.0,18.0,26,0.00,,,0.00,1121.000000,,2013-09-03 22:13:00,
2013-09-03 15:23:00,92.0,52.0,-100.00,SW,226,7.0,18.0,26,0.00,,,0.00,1121.000000,,2013-09-03 22:23:00,
2013-09-03 15:52:00,93.0,54.0,-100.00,WSW,237,9.0,17.0,27,0.00,,,0.00,1030.000000,,2013-09-03 22:52:00,
2013-09-03 16:04:00,93.0,54.0,-100.00,WSW,237,9.0,17.0,27,0.00,,,0.00,1030.000000,,2013-09-03 23:04:00,
2013-09-03 16:12:00,93.0,54.0,-100.00,WSW,237,9.0,17.0,27,0.00,,,0.00,1030.000000,,2013-09-03 23:12:00,
2013-09-03 16:22:00,93.0,54.0,-100.00,WSW,237,9.0,17.0,27,0.00,,,0.00,1030.000000,,2013-09-03 23:22:00,
2013-09-03 16:53:00,93.0,55.0,-100.00,WSW,238,7.0,17.0,28,0.00,,,0.00,864.000000,,2013-09-03 23:53:00,
2013-09-03 17:02:00,93.0,55.0,-100.00,WSW,238,7.0,17.0,28,0.00,,,0.00,864.000000,,2013-09-04 00:02:00,
2013-09-03 17:11:00,93.0,55.0,-100.00,WSW,238,7.0,17.0,28,0.00,,,0.00,864.000000,,2013-09-04 00:11:00,
2013-09-03 17:22:00,93.0,55.0,-100.00,WSW,238,7.0,17.0,28,0.00,,,0.00,864.000000,,2013-09-04 00:22:00,
2013-09-03 17:52:00,90.0,54.0,-100.00,SW,219,7.0,17.0,30,0.00,,,0.00,638.000000,,2013-09-04 00:52:00,
2013-09-03 18:01:00,90.0,54.0,-100.00,SW,219,7.0,17.0,30,0.00,,,0.00,638.000000,,2013-09-04 01:01:00,
2013-09-03 18:11:00,90.0,54.0,-100.00,SW,219,7.0,17.0,30,0.00,,,0.00,638.000000,,2013-09-04 01:11:00,
2013-09-03 18:21:00,90.0,54.0,-100.00,SW,219,7.0,17.0,30,0.00,,,0.00,638.000000,,2013-09-04 01:21:00,
2013-09-03 18:53:00,89.0,54.0,-100.00,SW,233,7.0,14.0,31,0.00,,,0.00,385.000000,,2013-09-04 01:53:00,
2013-09-03 19:02:00,89.0,54.0,-100.00,SW,233,7.0,14.0,31,0.00,,,0.00,385.000000,,2013-09-04 02:02:00,
2013-09-03 19:11:00,89.0,54.0,-100.00,SW,233,7.0,14.0,31,0.00,,,0.00,385.000000,,2013-09-04 02:11:00,
2013-09-03 19:22:00,89.0,54.0,-100.00,SW,233,7.0,14.0,31,0.00,,,0.00,385.000000,,2013-09-04 02:22:00,
2013-09-03 19:52:00,83.0,54.0,-100.00,WSW,249,3.0,13.0,37,0.00,,,0.00,125.000000,,2013-09-04 02:52:00,
2013-09-03 20:03:00,83.0,54.0,-100.00,WSW,249,3.0,13.0,37,0.00,,,0.00,125.000000,,2013-09-04 03:03:00,
2013-09-03 20:11:00,83.0,54.0,-100.00,WSW,249,3.0,13.0,37,0.00,,,0.00,125.000000,,2013-09-04 03:11:00,
2013-09-03 20:22:00,83.0,54.0,-100.00,WSW,249,3.0,13.0,37,0.00,,,0.00,125.000000,,2013-09-04 03:22:00,
2013-09-03 20:54:00,79.0,56.0,-100.00,SW,232,0.0,12.0,45,0.00,,,-99.99,3.000000,,2013-09-04 03:54:00,
2013-09-03 21:04:00,79.0,56.0,-100.00,SW,232,0.0,12.0,45,0.00,,,-99.99,3.000000,,2013-09-04 04:04:00,
2013-09-03 21:14:00,79.0,56.0,-100.00,SW,232,0.0,12.0,45,0.00,,,-99.99,3.000000,,2013-09-04 04:14:00,
2013-09-03 21:24:00,79.0,56.0,-100.00,SW,232,0.0,12.0,45,0.00,,,-99.99,3.000000,,2013-09-04 04:24:00,
2013-09-03 21:54:00,76.0,55.0,-100.00,SE,134,0.0,6.0,48,0.00,,,0.00,0.000000,,2013-09-04 04:54:00,
2013-09-03 22:03:00,76.0,55.0,-100.00,SE,134,0.0,6.0,48,0.00,,,0.00,0.000000,,2013-09-04 05:03:00,
2013-09-03 22:12:00,76.0,55.0,-100.00,SE,134,0.0,6.0,48,0.00,,,0.00,0.000000,,2013-09-04 05:12:00,
2013-09-03 22:23:00,76.0,55.0,-100.00,SE,134,0.0,6.0,48,0.00,,,0.00,0.000000,,2013-09-04 05:23:00,
2013-09-03 22:53:00,73.0,54.0,-100.00,SE,138,0.0,3.0,51,0.00,,,0.00,0.000000,,2013-09-04 05:53:00,
2013-09-03 23:02:00,73.0,54.0,-100.00,SE,138,0.0,3.0,51,0.00,,,0.00,0.000000,,2013-09-04 06:02:00,
2013-09-03 23:12:00,73.0,54.0,-100.00,SE,138,0.0,3.0,51,0.00,,,0.00,0.000000,,2013-09-04 06:12:00,
2013-09-03 23:22:00,73.0,54.0,-100.00,SE,138,0.0,3.0,51,0.00,,,0.00,0.000000,,2013-09-04 06:22:00,
2013-09-03 23:52:00,71.0,54.0,-100.00,SE,136,0.0,3.0,55,0.00,,,0.00,0.000000,,2013-09-04 06:52:00,